Regional Weather Roundup
Issued by NWS

Home | Current Version | Previous Version | Text Only | Print | Product List | Glossary Off
Versions: 1 2 3 4 5 6 7 8 9 10 11 12 13 14 15 16 17 18 19 20 21 22 23 24 25 26 27 28 29 30 31 32 33 34 35 36 37 38 39 40 41 42 43 44 45 46 47 48 49 50

000
ASUS45 KABQ 201801
RWRNM
WEATHER ROUNDUP FOR NEW MEXICO
NATIONAL WEATHER SERVICE ALBUQUERQUE NM
1200 PM MDT MON OCT 20 2014

NOTE: "FAIR" MEANS FEW OR NO CLOUDS BELOW 12,000 FEET AGL WITH NO
       SIGNIFICANT WEATHER OR OBSTRUCTIONS TO VISION.

      THIS PRODUCT IS RELEASED AS TWO VERSIONS.  ONE VERSION NEAR
      THE TOP OF THE HOUR CONTAINING PRELIMINARY DATA FROM ALBUQUERQUE
      AND OTHER STATIONS.  A FINAL VERSION WITH ADDITIONAL DATA IS
      ISSUED ABOUT 10 MINUTES AFTER THE HOUR.

NMZ501-503-504-510>518-201900-
NORTHWEST PLATEAU/NORTHCENTRAL MOUNTAINS

CITY           SKY/WX    TMP DP  RH WIND       PRES   REMARKS
FARMINGTON     SUNNY     65  42  43 VRB6      30.20F
6HR MIN TEMP:  44; 6HR MAX TEMP:  65;

LOS ALAMOS     SUNNY     59  40  48 CALM      30.29S
SANTA FE       SUNNY     66  37  34 N7        30.23F
6HR MIN TEMP:  42; 6HR MAX TEMP:  66;

TAOS           SUNNY     63  36  36 CALM      30.27F
ANGEL FIRE     FAIR      53  40  61 W3        30.35F

$$
NMZ402-403-502-505>509-201900-
WESTCENTRAL MOUNTAINS/SOUTHWEST MOUNTAINS

CITY           SKY/WX    TMP DP  RH WIND       PRES   REMARKS
GALLUP         LGT RAIN  56  46  69 SW3       30.23F
6HR MIN TEMP:  37; 6HR MAX TEMP:  57; 6HR PCP: TRACE;

SILVER CITY    CLOUDY    63  48  59 SE15      30.18S

$$
NMZ407-409-411-412-201900-
SOUTHERN DESERTS

CITY           SKY/WX    TMP DP  RH WIND       PRES   REMARKS
LORDSBURG      CLOUDY    64  50  59 MISG      30.12S
DEMING         PTSUNNY   66  52  60 E10       30.12F
6HR MIN TEMP:  52; 6HR MAX TEMP:  67;

LAS CRUCES     SUNNY     67  52  59 E3        30.14F
T OR C         SUNNY     66  50  56 NE9       30.15F
6HR MIN TEMP:  50; 6HR MAX TEMP:  66;


$$
NMZ519>523-201900-
CENTRAL VALLEYS/CENTRAL HIGHLANDS

CITY           SKY/WX    TMP DP  RH WIND       PRES   REMARKS
ALBUQUERQUE    PTSUNNY   62  43  49 S7        30.20S
6HR MIN TEMP:  47; 6HR MAX TEMP:  63;

DOUBLE EAGLE   PTSUNNY   64  41  42 CALM      30.22F
MORIARTY ARPT  FAIR      70  37  30 SE8       30.22F
6HR MIN TEMP:  32; 6HR MAX TEMP:  71;

CLINES CORNERS MOSUNNY   65  40  39 SE9G17    30.25F
6HR MIN TEMP:  42; 6HR MAX TEMP:  65;

BELEN          FAIR      61  44  54 CALM      30.20F
SOCORRO        FAIR      64  50  60 N8        30.18F
6HR MIN TEMP:  49; 6HR MAX TEMP:  64;


$$
NMZ524>526-539-540-201900-
SOUTHCENTRAL MOUNTAINS

CITY           SKY/WX    TMP DP  RH WIND       PRES   REMARKS
RUIDOSO        NOT AVBL

$$
NMZ527>531-201900-
NORTHEAST HIGHLANDS/NORTHEAST PLAINS

CITY           SKY/WX    TMP DP  RH WIND       PRES   REMARKS
LAS VEGAS      SUNNY     64  41  42 E10       30.27F
6HR MIN TEMP:  38; 6HR MAX TEMP:  64;

RATON          SUNNY     67  30  25 MISG      30.24F
6HR MIN TEMP:  39; 6HR MAX TEMP:  68;

CLAYTON        SUNNY     69  43  38 NE12      30.20F
6HR MIN TEMP:  47; 6HR MAX TEMP:  69;


$$
NMZ532>537-201900-
EASTCENTRAL PLAINS

CITY           SKY/WX    TMP DP  RH WIND       PRES   REMARKS
TUCUMCARI      SUNNY     72  46  39 VRB5      30.15F
6HR MIN TEMP:  49; 6HR MAX TEMP:  73;

CANNON AFB     NOT AVBL
CLOVIS AIRPORT SUNNY     70  55  60 S7        30.18F

$$
NMZ028-029-538-201900-
SOUTHEAST PLAINS

CITY           SKY/WX    TMP DP  RH WIND       PRES   REMARKS
ROSWELL        CLOUDY    66  57  72 CALM      30.14F
6HR MIN TEMP:  53; 6HR MAX TEMP:  67;

CARLSBAD       CLOUDY    67  58  72 CALM      30.11F
6HR MIN TEMP:  62; 6HR MAX TEMP:  67;

HOBBS          SUNNY     70  59  68 E9        30.14F


$$


USA.gov is the U.S. government's official web portal to all federal, state and local government web resources and services.